Lid_Strength_Index
-1 -1 -1 -1 -1 -1 0 0 2 3 5 8 5 6 6 7 6 5 6 6 7 8 7 8 6 8 9 8
-1 -1 -1 -1 -1 -0 0 -0 1 4 7 5 4 6 6 6 5 4 5 4 5 6 7 7 8 8 9 10
-1 -1 -1 -0 -0 0 -0 -0 3 4 9 4 6 6 6 7 6 5 4 6 5 6 6 8 9 9 12 10
-1 -0 0 0 0 1 1 2 2 7 7 8 6 6 5 6 7 6 6 5 6 8 7 9 13 11 11 10
0 0 1 3 4 4 3 6 7 7 7 6 5 6 5 6 6 6 7 5 8 10 8 7 8 9 10 10
0 1 3 4 4 2 7 5 5 5 5 4 7 5 4 7 7 8 6 7 10 7 6 7 8 9 10 10
0 2 3 2 1 1 5 5 4 5 5 4 5 5 4 5 7 7 7 9 7 6 7 7 9 9 10 10
3 2 2 1 -0 -0 8 8 6 5 4 4 6 4 4 5 6 8 7 7 7 8 7 9 8 10 8 8
2 2 1 -0 -1 2 14 7 6 3 4 5 5 5 3 4 7 7 6 8 7 7 9 8 7 9 7 8
1 0 -0 -0 1 9 14 8 6 6 7 6 6 5 5 4 5 7 7 7 6 7 8 7 7 7 9 9
2 -1 -0 2 9 12 7 9 8 6 7 7 7 7 7 8 9 10 10 8 8 8 8 9 8 9 11 15
-0 -1 1 6 12 9 9 6 7 7 8 7 7 7 8 9 8 10 11 12 13 9 8 9 11 10 11 15
1 1 5 10 10 9 7 8 7 9 9 8 9 8 8 9 10 10 12 12 12 10 9 9 10 11 13 11
1 2 7 9 8 7 7 7 10 8 10 9 10 9 9 9 10 11 10 11 14 11 11 10 10 11 10 14
2 4 9 9 8 8 7 8 8 9 8 9 9 9 11 10 9 11 11 12 13 13 12 12 12 12 13 13
6 6 7 8 9 8 7 8 8 8 9 9 10 10 11 10 10 10 11 12 13 15 13 11 11 12 12 12
9 9 8 10 9 10 9 9 10 9 9 10 11 10 10 10 10 10 12 11 13 16 15 13 12 14 12 12